Tracking 18851 objects as of 25-Nov-2017
HD Live streaming from Space Station
objects crossing your sky now

FENGYUN 1C DEB

Track FENGYUN 1C DEB now!
10-day predictions


NORAD ID: 32459
Int'l Code: 1999-025DBX
Perigee: 617.8 km
Apogee: 963.5 km
Inclination: 98.6 °
Period: 100.5 minutes
Semi major axis: 7161 km
RCS: 0.0076 m2 (small)
Launch date: May 10, 1999
Source: People's Republic of China (PRC)
Launch site: Taiyaun Space Center, China (TSC)

Note: This is SATELLITE DEBRIS
aabbcc
Your satellite tracking list
Your tracking list is empty




NASA's NSSDC Master Catalog

Two Line Element Set (TLE):
1 32459U 99025DBX 17328.33976837  .00000330  00000-0  10333-3 0  9994
2 32459  98.6009   4.4344 0241348 305.5201  52.3686 14.32451275524368
Source of the keplerian elements: AFSPC